Weather History for PATO - September, 2013

Change the Weather History Date:

Tuesday, September 10, 2013

  Actual Average Record
Temperature  
Mean Temperature 53 °F -  
Max Temperature 55 °F - - ()
Min Temperature 51 °F - - ()
Degree Days  
Heating Degree Days 12    
Growing Degree Days 3 (Base 50)    
Moisture  
Dew Point 50 °F    
Average Humidity 89    
Maximum Humidity 97    
Minimum Humidity 80    
Precipitation  
Precipitation 1.64 in - - ()
Sea Level Pressure  
Sea Level Pressure 29.77 in    
Wind  
Wind Speed 13 mph (ESE)    
Max Wind Speed 21 mph    
Max Gust Speed 36 mph    
Visibility 4 miles    
Events Rain    
T = Trace of Precipitation, MM = Missing Value Source: NWS Daily Summary

Daily Weather History Graph

Daily Weather History Graph

Search for Another Location

Airport or City:

Trip Planner

Search our weather history database for the weather conditions in past years. The results will help you decide how hot, cold, wet, or windy it might be!

Date:

Astronomy

Sep. 10, 2013 Rise Set
Actual Time 7:11 AM AKDT 8:31 PM AKDT
Civil Twilight 6:27 AM AKDT 9:15 PM AKDT
Nautical Twilight 5:31 AM AKDT 10:10 PM AKDT
Astronomical Twilight 4:25 AM AKDT 11:15 PM AKDT
Moon 2:28 PM AKDT (9/10) 9:59 PM AKDT (9/10)
Length of Visible Light 14h 48m
Length of Day
13h 19m
Waxing Crescent, 30% of the Moon is Illuminated
Sep 10
Waxing Crescent
Sep 12
First Quarter
Sep 19
Full
Sep 26
Last Quarter
Oct 4
New

Hourly Weather History & Observations

Time (AKDT) Temp. Dew Point Humidity Pressure Visibility Wind Dir Wind Speed Gust Speed Precip Events Conditions
12:53 AM 55.9 °F 50.0 °F 80% 29.74 in 10.0 mi East 15.0 mph 23.0 mph 0.01 in Rain Light Rain
1:53 AM 52.0 °F 50.0 °F 93% 29.75 in 4.0 mi ESE 10.4 mph 19.6 mph 0.08 in Rain Rain
2:51 AM 51.8 °F 50.0 °F 94% 29.75 in 6.0 mi SSE 8.1 mph 18.4 mph 0.07 in Rain Rain
2:53 AM 52.0 °F 50.0 °F 93% 29.75 in 6.0 mi Variable 6.9 mph 18.4 mph 0.07 in Rain Rain
3:53 AM 52.0 °F 51.1 °F 97% 29.75 in 3.0 mi Variable 5.8 mph - 0.13 in Rain Light Rain
4:53 AM 53.1 °F 50.0 °F 89% 29.74 in 6.0 mi ESE 13.8 mph 26.5 mph 0.06 in Rain Light Rain
5:53 AM 54.0 °F 51.1 °F 90% 29.73 in 3.0 mi East 18.4 mph 29.9 mph 0.08 in Rain Rain
6:53 AM 54.0 °F 51.1 °F 90% 29.73 in 6.0 mi ESE 18.4 mph 26.5 mph 0.05 in Rain Light Rain
7:09 AM 55.0 °F 50.0 °F 83% 29.74 in 6.0 mi East 20.7 mph 31.1 mph 0.01 in Rain Light Rain
7:53 AM 54.0 °F 50.0 °F 86% 29.75 in 2.5 mi SE 11.5 mph 27.6 mph 0.05 in Rain Light Rain
8:10 AM 54.0 °F 50.0 °F 86% 29.74 in 5.0 mi ESE 15.0 mph 29.9 mph 0.01 in Rain Light Rain
8:46 AM 53.1 °F 50.0 °F 89% 29.75 in 2.0 mi ESE 15.0 mph 23.0 mph 0.03 in Rain Rain
8:53 AM 54.0 °F 50.0 °F 86% 29.75 in 4.0 mi ESE 11.5 mph 26.5 mph 0.04 in Rain Light Rain
9:04 AM 55.0 °F 50.0 °F 83% 29.74 in 2.5 mi East 15.0 mph 32.2 mph 0.00 in Rain Light Rain
9:53 AM 55.0 °F 50.0 °F 83% 29.75 in 4.0 mi East 18.4 mph 34.5 mph 0.08 in Rain Light Rain
10:06 AM 54.0 °F 50.0 °F 86% 29.76 in 2.0 mi ESE 19.6 mph 31.1 mph 0.02 in Rain Rain
10:18 AM 55.0 °F 50.0 °F 83% 29.76 in 4.0 mi ESE 17.3 mph 28.8 mph 0.03 in Rain Light Rain
10:31 AM 54.0 °F 50.0 °F 86% 29.76 in 2.0 mi East 19.6 mph 32.2 mph 0.05 in Rain Rain
10:44 AM 54.0 °F 50.0 °F 86% 29.77 in 3.0 mi East 17.3 mph 32.2 mph 0.07 in Rain Light Rain
10:53 AM 54.0 °F 50.0 °F 86% 29.77 in 3.0 mi ESE 13.8 mph 32.2 mph 0.08 in Rain Light Rain
11:01 AM 54.0 °F 50.0 °F 86% 29.77 in 2.5 mi East 15.0 mph 28.8 mph 0.00 in Rain Light Rain
11:34 AM 53.1 °F 50.0 °F 89% 29.77 in 1.5 mi SE 9.2 mph 25.3 mph 0.07 in Rain Heavy Rain
11:45 AM 53.1 °F 50.0 °F 89% 29.77 in 3.0 mi ESE 9.2 mph 24.2 mph 0.08 in Rain Rain
11:53 AM 53.1 °F 51.1 °F 93% 29.78 in 5.0 mi ESE 8.1 mph 17.3 mph 0.09 in Rain Light Rain
12:53 PM 53.1 °F 52.0 °F 96% 29.78 in 5.0 mi South 6.9 mph 19.6 mph 0.04 in Rain Light Rain
1:04 PM 53.1 °F 52.0 °F 96% 29.78 in 2.0 mi Variable 6.9 mph 23.0 mph 0.01 in Rain Light Rain
1:14 PM 52.0 °F 51.1 °F 97% 29.78 in 3.0 mi SE 10.4 mph - 0.02 in Rain Light Rain
1:53 PM 54.0 °F 53.1 °F 97% 29.79 in 8.0 mi SSE 9.2 mph - 0.03 in Rain Light Rain
2:41 PM 55.0 °F 52.0 °F 89% 29.79 in 6.0 mi East 15.0 mph 25.3 mph 0.01 in Rain Light Rain
2:48 PM 55.4 °F 51.8 °F 88% 29.79 in 10.0 mi East 13.8 mph 25.3 mph 0.01 in Rain Light Rain
2:53 PM 55.9 °F 51.1 °F 84% 29.79 in 10.0 mi ESE 11.5 mph 24.2 mph 0.01 in Rain Light Rain
3:31 PM 54.0 °F 51.1 °F 90% 29.78 in 2.0 mi ESE 18.4 mph 31.1 mph 0.02 in Rain Rain
3:45 PM 55.0 °F 51.1 °F 86% 29.78 in 3.0 mi ESE 16.1 mph 27.6 mph 0.03 in Rain Light Rain
3:53 PM 55.0 °F 51.1 °F 86% 29.79 in 3.0 mi East 10.4 mph 31.1 mph 0.04 in Rain Light Rain
4:12 PM 55.0 °F 51.1 °F 86% 29.79 in 2.0 mi ESE 16.1 mph 35.7 mph 0.02 in Rain Rain
4:31 PM 54.0 °F 51.1 °F 90% 29.79 in 3.0 mi ESE 10.4 mph 29.9 mph 0.06 in Rain Light Rain
4:41 PM 54.0 °F 51.1 °F 90% 29.79 in 1.8 mi North - - 0.09 in Rain Rain
4:53 PM 54.0 °F 51.1 °F 90% 29.79 in 1.5 mi ESE 18.4 mph 32.2 mph 0.15 in Rain Heavy Rain
5:20 PM 54.0 °F 51.1 °F 90% 29.80 in 2.5 mi East 20.7 mph 32.2 mph 0.06 in Rain Light Rain
5:30 PM 54.0 °F 50.0 °F 86% 29.80 in 4.0 mi ESE 13.8 mph 29.9 mph 0.07 in Rain Light Rain
5:42 PM 54.0 °F 50.0 °F 86% 29.80 in 2.5 mi ESE 13.8 mph 31.1 mph 0.08 in Rain Light Rain
5:53 PM 54.0 °F 50.0 °F 86% 29.80 in 2.5 mi ESE 12.7 mph 27.6 mph 0.10 in Rain Light Rain
6:02 PM 54.0 °F 50.0 °F 86% 29.80 in 3.0 mi ESE 12.7 mph 19.6 mph 0.01 in Rain Light Rain
6:24 PM 54.0 °F 48.9 °F 83% 29.79 in 6.0 mi SE 12.7 mph 24.2 mph 0.01 in Rain Light Rain
6:46 PM 53.1 °F 50.0 °F 89% 29.79 in 2.5 mi ESE 12.7 mph 27.6 mph 0.02 in Rain Light Rain
6:53 PM 52.0 °F 50.0 °F 93% 29.80 in 1.8 mi SSE 11.5 mph 23.0 mph 0.03 in Rain Light Rain
7:01 PM 52.0 °F 50.0 °F 93% 29.80 in 2.0 mi SE 12.7 mph 28.8 mph 0.00 in Rain Light Rain
7:05 PM 52.0 °F 50.0 °F 93% 29.80 in 1.8 mi SE 11.5 mph 28.8 mph 0.01 in Rain Light Rain
7:21 PM 53.1 °F 50.0 °F 89% 29.79 in 2.0 mi ESE 9.2 mph 27.6 mph 0.03 in Rain Rain
7:33 PM 53.1 °F 50.0 °F 89% 29.79 in 4.0 mi ESE 10.4 mph 21.9 mph 0.04 in Rain Light Rain
7:53 PM 53.1 °F 50.0 °F 89% 29.79 in 3.0 mi SE 16.1 mph 29.9 mph 0.06 in Rain Light Rain
8:12 PM 52.0 °F 50.0 °F 93% 29.79 in 2.0 mi ESE 11.5 mph 27.6 mph 0.03 in Rain Rain
8:21 PM 53.1 °F 50.0 °F 89% 29.79 in 3.0 mi SE 11.5 mph 25.3 mph 0.05 in Rain Light Rain
8:53 PM 51.1 °F 50.0 °F 96% 29.79 in 3.0 mi SE 11.5 mph 21.9 mph 0.09 in Rain Rain
9:04 PM 52.0 °F 50.0 °F 93% 29.78 in 4.0 mi SE 10.4 mph 24.2 mph 0.01 in Rain Light Rain
9:37 PM 52.0 °F 50.0 °F 93% 29.77 in 5.0 mi ESE 12.7 mph 27.6 mph 0.05 in Rain Light Rain
9:44 PM 53.1 °F 50.0 °F 89% 29.77 in 6.0 mi ESE 15.0 mph 27.6 mph 0.06 in Rain Light Rain
9:53 PM 52.0 °F 48.9 °F 89% 29.77 in 7.0 mi ESE 17.3 mph 28.8 mph 0.06 in Rain Light Rain
10:14 PM 52.0 °F 48.9 °F 89% 29.76 in 5.0 mi SE 12.7 mph 23.0 mph 0.02 in Rain Light Rain
10:53 PM 52.0 °F 50.0 °F 93% 29.75 in 5.0 mi SE 13.8 mph 24.2 mph 0.05 in Rain Light Rain
11:20 PM 51.1 °F 50.0 °F 96% 29.75 in 5.0 mi SSE 11.5 mph 25.3 mph 0.06 in Rain Rain
11:53 PM 52.0 °F 50.0 °F 93% 29.74 in 4.0 mi ESE 13.8 mph 25.3 mph 0.16 in Rain Rain